TimeMST,TemperatureF,Dew PointF,Humidity,Sea Level PressureIn,VisibilityMPH,Wind Direction,Wind SpeedMPH,Gust SpeedMPH,PrecipitationIn,Events,Conditions,WindDirDegrees,DateUTC
12:53 AM,45.0,19.0,36,29.78,10.0,SSE,12.7,-,N/A,,Clear,160,2013-03-07 07:53:00
1:53 AM,43.0,19.9,40,29.77,10.0,South,11.5,-,N/A,,Clear,170,2013-03-07 08:53:00
2:53 AM,41.0,19.9,43,29.79,10.0,Calm,Calm,-,N/A,,Clear,0,2013-03-07 09:53:00
3:53 AM,39.0,21.0,49,29.78,10.0,ENE,4.6,-,N/A,,Clear,70,2013-03-07 10:53:00
4:53 AM,39.0,21.0,49,29.80,10.0,NW,3.5,-,N/A,,Clear,320,2013-03-07 11:53:00
5:53 AM,35.1,21.0,57,29.83,10.0,Calm,Calm,-,N/A,,Clear,0,2013-03-07 12:53:00
6:53 AM,30.0,21.9,72,29.86,10.0,ESE,3.5,-,N/A,,Clear,120,2013-03-07 13:53:00
7:53 AM,36.0,23.0,59,29.86,10.0,Calm,Calm,-,N/A,,Clear,0,2013-03-07 14:53:00
8:53 AM,43.0,21.0,42,29.85,10.0,Calm,Calm,-,N/A,,Clear,0,2013-03-07 15:53:00
9:53 AM,50.0,19.0,29,29.83,10.0,South,9.2,-,N/A,,Clear,170,2013-03-07 16:53:00
10:53 AM,52.0,19.0,27,29.79,10.0,South,19.6,25.3,N/A,,Clear,190,2013-03-07 17:53:00
11:53 AM,53.1,18.0,25,29.78,10.0,SW,12.7,26.5,N/A,,Clear,220,2013-03-07 18:53:00
12:53 PM,55.9,17.1,22,29.76,10.0,SSW,18.4,24.2,N/A,,Clear,210,2013-03-07 19:53:00
1:53 PM,57.0,18.0,22,29.73,10.0,SW,13.8,23.0,N/A,,Scattered Clouds,220,2013-03-07 20:53:00
2:53 PM,55.0,15.1,21,29.73,10.0,SSW,16.1,26.5,N/A,,Clear,200,2013-03-07 21:53:00
3:53 PM,54.0,19.0,25,29.74,10.0,SSW,18.4,23.0,N/A,,Partly Cloudy,210,2013-03-07 22:53:00
4:53 PM,52.0,21.0,30,29.75,10.0,SW,17.3,24.2,N/A,,Clear,220,2013-03-07 23:53:00
5:53 PM,48.9,21.9,35,29.78,10.0,SW,12.7,-,N/A,,Clear,220,2013-03-08 00:53:00
6:53 PM,46.0,23.0,40,29.82,10.0,SW,6.9,-,N/A,,Scattered Clouds,220,2013-03-08 01:53:00
7:53 PM,46.0,23.0,40,29.81,10.0,SSW,12.7,-,N/A,,Partly Cloudy,210,2013-03-08 02:53:00
8:53 PM,43.0,25.0,49,29.81,10.0,SW,10.4,-,N/A,,Partly Cloudy,230,2013-03-08 03:53:00
9:53 PM,41.0,26.1,55,29.79,10.0,WSW,6.9,-,N/A,,Clear,240,2013-03-08 04:53:00
10:53 PM,39.0,26.1,60,29.79,10.0,West,5.8,-,N/A,,Clear,260,2013-03-08 05:53:00
11:53 PM,39.9,27.0,60,29.78,10.0,West,5.8,-,N/A,,Scattered Clouds,260,2013-03-08 06:53:00